Weather History for KHYA - February, 2015

Change the Weather History Date:

Friday, February 13, 2015

  Actual Average Record
Temperature  
Mean Temperature 18 °F -  
Max Temperature 25 °F 36 °F 55 °F (1951)
Min Temperature 9 °F 18 °F -4 °F (1979)
Degree Days  
Heating Degree Days 48    
Moisture  
Dew Point 2 °F    
Average Humidity 54    
Maximum Humidity 84    
Minimum Humidity 36    
Precipitation  
Precipitation 0.00 in - - ()
Sea Level Pressure  
Sea Level Pressure 29.87 in    
Wind  
Wind Speed 14 mph (NW)    
Max Wind Speed 20 mph    
Max Gust Speed 33 mph    
Visibility 8 miles    
Events Snow    
Averages and records for this station are not official NWS values.
T = Trace of Precipitation, MM = Missing Value Source: NWS Daily Summary

Daily Weather History Graph

Daily Weather History Graph

Search for Another Location

Airport or City:

Trip Planner

Search our weather history database for the weather conditions in past years. The results will help you decide how hot, cold, wet, or windy it might be!

Date:

Astronomy

Feb. 13, 2015 Rise Set
Actual Time 6:39 AM EST 5:11 PM EST
Civil Twilight 6:10 AM EST 5:40 PM EST
Nautical Twilight 5:38 AM EST 6:12 PM EST
Astronomical Twilight 5:06 AM EST 6:45 PM EST
Moon 1:40 AM EST (2/13) 11:49 AM EST (2/13)
Length of Visible Light 11h 29m
Length of Day
10h 32m
Waning Crescent, 34% of the Moon is Illuminated
Feb 13
Waning Crescent
Feb 18
New
Feb 25
First Quarter
Mar 5
Full
Mar 13
Last Quarter

Hourly Weather History & Observations

Time (EST) Temp. Windchill Dew Point Humidity Pressure Visibility Wind Dir Wind Speed Gust Speed Precip Events Conditions
12:25 AM 25.0 °F 13.6 °F 19.9 °F 81% 29.64 in 1.8 mi NW 12.7 mph 27.6 mph 0.00 in Snow Light Snow
12:56 AM 24.1 °F 12.0 °F 19.9 °F 84% 29.65 in 1.5 mi NNW 13.8 mph 27.6 mph 0.00 in Snow Light Snow
1:09 AM 25.0 °F 13.1 °F 18.0 °F 75% 29.65 in 2.5 mi NW 13.8 mph 27.6 mph 0.00 in Snow Light Snow
1:46 AM 24.1 °F 10.1 °F 15.1 °F 69% 29.65 in 3.0 mi NW 18.4 mph 31.1 mph 0.00 in Snow Light Snow
1:56 AM 24.1 °F 9.8 °F 14.0 °F 65% 29.66 in 4.0 mi NW 19.6 mph 33.4 mph 0.00 in Snow Light Snow
2:35 AM 21.9 °F 6.9 °F 12.9 °F 68% 29.66 in 5.0 mi NNW 19.6 mph 28.8 mph 0.00 in   Overcast
2:56 AM 21.0 °F 5.7 °F 12.0 °F 68% 29.67 in 4.0 mi NNW 19.6 mph 31.1 mph 0.00 in   Mostly Cloudy
3:56 AM 19.0 °F 4.0 °F 7.0 °F 59% 29.70 in 8.0 mi NW 17.3 mph 26.5 mph 0.00 in   Partly Cloudy
4:44 AM 18.0 °F 3.6 °F 8.1 °F 65% 29.74 in 10.0 mi WNW 15.0 mph 19.6 mph 0.00 in   Mostly Cloudy
4:56 AM 17.1 °F 5.0 °F 7.0 °F 65% 29.76 in 10.0 mi NW 10.4 mph - 0.00 in   Mostly Cloudy
5:15 AM 16.0 °F 2.3 °F 6.1 °F 65% 29.76 in 10.0 mi WNW 12.7 mph 23.0 mph N/A   Scattered Clouds
5:56 AM 15.1 °F -1.1 °F 1.9 °F 56% 29.79 in 10.0 mi NW 17.3 mph 33.4 mph N/A   Partly Cloudy
6:56 AM 12.9 °F -1.6 °F 1.0 °F 59% 29.84 in 7.0 mi WNW 12.7 mph 24.2 mph N/A   Clear
7:56 AM 12.0 °F -2.0 °F -0.0 °F 59% 29.88 in 9.0 mi WNW 11.5 mph 28.8 mph N/A   Clear
8:56 AM 12.0 °F -5.1 °F -0.9 °F 56% 29.89 in 10.0 mi NW 17.3 mph 26.5 mph N/A   Clear
9:56 AM 12.0 °F -5.1 °F -2.0 °F 53% 29.91 in 10.0 mi NW 17.3 mph 28.8 mph N/A   Clear
10:56 AM 12.9 °F -2.2 °F -2.0 °F 51% 29.93 in 10.0 mi NW 13.8 mph 24.2 mph N/A   Clear
11:56 AM 14.0 °F -2.0 °F -2.0 °F 49% 29.92 in 10.0 mi NW 16.1 mph 23.0 mph N/A   Clear
12:56 PM 16.0 °F 2.9 °F -0.9 °F 47% 29.94 in 10.0 mi WNW 11.5 mph 21.9 mph N/A   Clear
1:56 PM 17.1 °F 3.6 °F -2.9 °F 41% 29.95 in 10.0 mi WNW 12.7 mph 20.7 mph N/A   Clear
2:56 PM 18.0 °F 6.1 °F -4.0 °F 38% 29.96 in 10.0 mi WNW 10.4 mph - N/A   Clear
3:56 PM 18.0 °F 6.1 °F -5.1 °F 36% 29.97 in 10.0 mi NW 10.4 mph - N/A   Clear
4:56 PM 17.1 °F 7.6 °F -6.0 °F 36% 29.99 in 10.0 mi WNW 6.9 mph 17.3 mph N/A   Clear
5:56 PM 15.1 °F 4.2 °F -7.1 °F 37% 30.02 in 10.0 mi WNW 8.1 mph - N/A   Clear
6:56 PM 14.0 °F 2.9 °F -7.1 °F 39% 30.04 in 10.0 mi WNW 8.1 mph - N/A   Clear
7:56 PM 12.9 °F 2.6 °F -8.0 °F 39% 30.06 in 10.0 mi West 6.9 mph - N/A   Clear
8:56 PM 12.0 °F -0.4 °F -9.0 °F 39% 30.09 in 10.0 mi West 9.2 mph - N/A   Clear
9:56 PM 10.9 °F -0.8 °F -9.9 °F 39% 30.08 in 10.0 mi WNW 8.1 mph - N/A   Clear
10:56 PM 10.0 °F -3.7 °F -11.0 °F 38% 30.09 in 10.0 mi WNW 10.4 mph - N/A   Clear
11:56 PM 9.0 °F -4.2 °F -9.9 °F 42% 30.09 in 10.0 mi West 9.2 mph - N/A   Clear